Regional Weather Roundup
Issued by NWS

Home | Current Version | Previous Version | Text Only | Print | Product List | Glossary Off
Versions: 1 2 3 4 5 6 7 8 9 10 11 12 13 14 15 16 17 18 19 20 21 22 23 24 25 26 27 28 29 30 31 32 33 34 35 36 37 38 39 40 41 42 43 44 45 46 47 48 49 50

000
ASUS43 KFSD 211402
RWRSD

WEATHER ROUNDUP FOR SOUTH DAKOTA
NATIONAL WEATHER SERVICE SIOUX FALLS SD
800 AM CST TUE FEB 21 2017

NOTE: "FAIR" INDICATES FEW OR NO CLOUDS BELOW 12,000 FEET WITH NO
SIGNIFICANT WEATHER AND/OR OBSTRUCTIONS TO VISIBILITY.


SDZ001>005-009-010-012>017-211500-
NORTHWEST AND NORTH CENTRAL SOUTH DAKOTA

CITY           SKY/WX    TMP DP  RH WIND       PRES   REMARKS
BUFFALO          N/A     45  33  63 SW8       29.66S
FAITH            N/A     46  35  65 W8        29.74R
MOBRIDGE       MOCLDY    38  30  73 CALM      29.68S
$$

SDZ012>016-024>037-041>051-057-063-072>074-211500-
SOUTHWEST AND SOUTH CENTRAL SOUTH DAKOTA

CITY           SKY/WX    TMP DP  RH WIND       PRES   REMARKS
RAPID CTY ARPT CLEAR     44  30  57 NE3       29.75S
PIERRE         CLEAR     36  29  75 VRB3      29.74S
CUSTER         CLEAR     45  29  53 W13G24    29.85F
ELLSWORTH AFB  PTCLDY    50  30  46 CALM      29.74F
PHILIP         CLEAR     46  32  58 W7        29.75F
PINE RIDGE     CLEAR     34  27  75 NW5       29.84F WCI  30
SPEARFISH      FAIR      52  32  46 SW26G37   29.73R
WINNER         FAIR      46  28  49 SW13      29.78S
$$

SDZ004>011-016>023-039-040-211500-
NORTHEAST SOUTH DAKOTA

CITY           SKY/WX    TMP DP  RH WIND       PRES   REMARKS
ABERDEEN       CLEAR     34  29  82 S14       29.71S WCI  25
WATERTOWN      CLEAR     34  32  92 S10       29.75S WCI  26
BROOKINGS      CLEAR     39  35  86 S12       29.79R
SISSETON         N/A     41  34  76 S9        29.70F
$$

SDZ017-020-022-023-036>040-048>070-211500-
SOUTHEAST SOUTH DAKOTA

CITY           SKY/WX    TMP DP  RH WIND       PRES   REMARKS
SIOUX FALLS    PTCLDY    44  35  70 S16       29.83F
HURON          CLEAR     37  30  75 S10       29.76S
CHAMBERLAIN    CLEAR     44  32  63 SW6       29.78R
MITCHELL       CLEAR     41  30  65 S12       29.80S
YANKTON        PTCLDY    43  30  61 S13       29.86F
$$

ABBREVIATIONS USED IN REMARKS
   TC - TEMPERATURE IN CELSIUS
  WCI - WIND CHILL INDEX
   HX - HEAT INDEX
  VSB - VISIBILITY





USA.gov is the U.S. government's official web portal to all federal, state and local government web resources and services.